This demonstration page uses our WeatherBlox Daily Observations layout. Learn more.

Left ArrowRight Arrow

40.92501, -98.34201

Hourly Observations for August 11, 2022

Temp ( °F °C ) Dew Point ( °F °C ) Humidity (%) Winds ( mph kmh ) Pressure ( in mb ) Visibility ( mi km ) Precip ( " mm )
12:53 am 00:53 Clear 74 23.3 65 18.3 74 74 S 8 13 30.14 1021 10 16 0.00 0.00
1:53 am 01:53 Clear 72 22.2 64 17.8 76 76 S 6 9 30.14 1021 10 16 0.00 0.00
2:53 am 02:53 Clear 74 23.3 62 16.7 66 66 S 10 17 30.13 1020 10 16 0.00 0.00
3:53 am 03:53 Mostly Clear 71 21.7 63 17.2 76 76 S 7 11 30.14 1021 10 16 0.00 0.00
4:53 am 04:53 Clear 70 21.1 62 16.7 76 76 S 7 11 30.14 1021 10 16 0.00 0.00
5:53 am 05:53 Clear 68 20 62 16.7 81 81 S 8 13 30.14 1021 10 16 0.00 0.00
6:53 am 06:53 Sunny 67 19.4 61 16.1 81 81 S 7 11 30.14 1021 10 16 0.00 0.00
7:53 am 07:53 Sunny 71 21.7 61 16.1 70 70 S 8 13 30.15 1021 10 16 0.00 0.00
8:53 am 08:53 Sunny 77 25 61 16.1 58 58 S 10 17 30.16 1021 10 16 0.00 0.00
9:53 am 09:53 Sunny 82 27.8 59 15 46 46 SSW 14 22 30.15 1021 10 16 0.00 0.00
10:53 am 10:53 Sunny 85 29.4 60 15.6 43 43 SSW 12 19 30.16 1021 10 16 0.00 0.00
11:53 am 11:53 Sunny 88 31.1 62 16.7 42 42 SSW 14 22 30.14 1021 10 16 0.00 0.00
12:53 pm 12:53 Sunny 89 31.7 63 17.2 42 42 SSW 13 20 30.13 1020 10 16 0.00 0.00
1:53 pm 13:53 Sunny 90 32.2 64 17.8 42 42 S 12 19 30.12 1020 10 16 0.00 0.00
2:53 pm 14:53 Sunny 92 33.3 62 16.7 37 37 S 12 19 30.11 1020 10 16 0.00 0.00
3:53 pm 15:53 Sunny 92 33.3 61 16.1 36 36 SSE 9 15 30.09 1019 10 16 0.00 0.00
4:53 pm 16:53 Sunny 92 33.3 58 14.4 32 32 SSE 15 24 30.09 1019 10 16 0.00 0.00
5:53 pm 17:53 Sunny 90 32.2 64 17.8 42 42 SSE 13 20 30.08 1019 10 16 0.00 0.00
6:53 pm 18:53 Sunny 87 30.6 63 17.2 45 45 SSE 13 20 30.08 1019 10 16 0.00 0.00
7:53 pm 19:53 Sunny 84 28.9 62 16.7 48 48 SSE 8 13 30.07 1018 10 16 0.00 0.00
8:53 pm 20:53 Clear 79 26.1 60 15.6 52 52 SSE 9 15 30.08 1019 10 16 0.00 0.00
9:53 pm 21:53 Clear 76 24.4 59 15 56 56 S 10 17 30.09 1019 10 16 0.00 0.00
10:53 pm 22:53 Clear 73 22.8 57 13.9 57 57 S 9 15 30.10 1019 10 16 0.00 0.00
11:53 pm 23:53 Clear 74 23.3 57 13.9 56 56 S 10 17 30.09 1019 10 16 0.00 0.00

Powered by AerisWeather